Time,TemperatureF,DewpointF,PressureIn,WindDirection,WindDirectionDegrees,WindSpeedMPH,WindSpeedGustMPH,Humidity,HourlyPrecipIn,Conditions,Clouds,dailyrainin,SoftwareType,DateUTC
2013-02-13 00:00:00,47.9,35.1,30.30,North,356,0.0,1.0,61,0.00,,,0.00,Wunderground v.1.15,2013-02-13 08:00:00,
2013-02-13 00:10:00,47.9,35.1,30.30,NNE,21,0.0,0.0,61,0.00,,,0.00,Wunderground v.1.15,2013-02-13 08:10:00,
2013-02-13 00:15:00,47.8,35.0,30.30,NNW,339,0.0,1.0,61,0.00,,,0.00,Wunderground v.1.15,2013-02-13 08:15:00,
2013-02-13 00:20:00,47.9,35.1,30.30,East,79,0.0,0.0,61,0.00,,,0.00,Wunderground v.1.15,2013-02-13 08:20:00,
2013-02-13 00:25:00,47.8,35.0,30.30,NE,53,0.0,0.0,61,0.00,,,0.00,Wunderground v.1.15,2013-02-13 08:25:00,
2013-02-13 00:35:00,48.3,35.0,30.30,North,359,0.0,0.0,60,0.00,,,0.00,Wunderground v.1.15,2013-02-13 08:35:00,
2013-02-13 00:40:00,48.6,34.9,30.29,NE,54,0.0,0.0,59,0.00,,,0.00,Wunderground v.1.15,2013-02-13 08:40:00,
2013-02-13 00:50:00,48.3,35.0,30.29,East,82,0.0,0.0,60,0.00,,,0.00,Wunderground v.1.15,2013-02-13 08:50:00,
2013-02-13 00:55:00,48.3,35.0,30.29,NNE,20,0.0,0.0,60,0.00,,,0.00,Wunderground v.1.15,2013-02-13 08:55:00,
2013-02-13 01:00:00,48.1,35.3,30.29,NNW,330,0.0,2.0,61,0.00,,,0.00,Wunderground v.1.15,2013-02-13 09:00:00,
2013-02-13 01:10:00,48.1,35.3,30.29,NNE,25,0.0,0.0,61,0.00,,,0.00,Wunderground v.1.15,2013-02-13 09:10:00,
2013-02-13 01:15:00,47.9,35.1,30.28,NNE,25,0.0,0.0,61,0.00,,,0.00,Wunderground v.1.15,2013-02-13 09:15:00,
2013-02-13 01:20:00,47.7,35.7,30.29,NNE,19,0.0,1.0,63,0.00,,,0.00,Wunderground v.1.15,2013-02-13 09:20:00,
2013-02-13 01:25:00,47.9,35.5,30.28,North,9,1.0,1.0,62,0.00,,,0.00,Wunderground v.1.15,2013-02-13 09:25:00,
2013-02-13 01:30:00,47.7,35.7,30.28,North,1,1.0,1.0,63,0.00,,,0.00,Wunderground v.1.15,2013-02-13 09:30:00,
2013-02-13 01:35:00,47.3,35.7,30.28,North,355,0.0,1.0,64,0.00,,,0.00,Wunderground v.1.15,2013-02-13 09:35:00,
2013-02-13 01:40:00,47.1,35.5,30.28,North,356,0.0,0.0,64,0.00,,,0.00,Wunderground v.1.15,2013-02-13 09:40:00,
2013-02-13 01:45:00,46.8,35.6,30.28,North,355,0.0,0.0,65,0.00,,,0.00,Wunderground v.1.15,2013-02-13 09:45:00,
2013-02-13 01:55:00,47.2,35.2,30.28,NNW,334,0.0,1.0,63,0.00,,,0.00,Wunderground v.1.15,2013-02-13 09:55:00,
2013-02-13 02:00:00,47.4,35.4,30.28,NNW,333,1.0,1.0,63,0.00,,,0.00,Wunderground v.1.15,2013-02-13 10:00:00,
2013-02-13 02:10:00,47.5,35.5,30.28,NNW,333,0.0,2.0,63,0.00,,,0.00,Wunderground v.1.15,2013-02-13 10:10:00,
2013-02-13 02:15:00,47.5,35.5,30.28,NW,324,1.0,2.0,63,0.00,,,0.00,Wunderground v.1.15,2013-02-13 10:15:00,
2013-02-13 02:20:00,47.5,35.9,30.28,NW,324,1.0,2.0,64,0.00,,,0.00,Wunderground v.1.15,2013-02-13 10:20:00,
2013-02-13 02:30:00,47.0,35.8,30.28,WNW,301,1.0,2.0,65,0.00,,,0.00,Wunderground v.1.15,2013-02-13 10:30:00,
2013-02-13 02:40:00,47.6,35.6,30.28,West,260,1.0,1.0,63,0.00,,,0.00,Wunderground v.1.15,2013-02-13 10:40:00,
2013-02-13 02:45:00,47.5,34.7,30.28,WNW,288,0.0,3.0,61,0.00,,,0.00,Wunderground v.1.15,2013-02-13 10:45:00,
2013-02-13 02:50:00,48.1,35.7,30.28,NNE,30,1.0,1.0,62,0.00,,,0.00,Wunderground v.1.15,2013-02-13 10:50:00,
2013-02-13 02:55:00,48.7,35.4,30.28,NW,319,1.0,1.0,60,0.00,,,0.00,Wunderground v.1.15,2013-02-13 10:55:00,
2013-02-13 03:00:00,49.3,35.6,30.28,North,1,1.0,1.0,59,0.00,,,0.00,Wunderground v.1.15,2013-02-13 11:00:00,
2013-02-13 03:10:00,49.7,35.5,30.28,ESE,105,1.0,2.0,58,0.00,,,0.00,Wunderground v.1.15,2013-02-13 11:10:00,
2013-02-13 03:15:00,49.8,35.6,30.28,ESE,116,1.0,2.0,58,0.00,,,0.00,Wunderground v.1.15,2013-02-13 11:15:00,
2013-02-13 03:20:00,49.7,35.1,30.28,East,101,1.0,2.0,57,0.00,,,0.00,Wunderground v.1.15,2013-02-13 11:20:00,
2013-02-13 03:25:00,49.4,35.2,30.28,East,92,2.0,2.0,58,0.00,,,0.00,Wunderground v.1.15,2013-02-13 11:25:00,
2013-02-13 08:15:00,51.2,36.5,30.28,East,91,1.0,5.0,57,0.00,,,0.00,Wunderground v.1.15,2013-02-13 16:15:00,
2013-02-13 08:25:00,50.6,34.6,30.28,East,98,2.0,5.0,54,0.00,,,0.00,Wunderground v.1.15,2013-02-13 16:25:00,
2013-02-13 08:30:00,50.6,35.9,30.28,ESE,103,3.0,5.0,57,0.00,,,0.00,Wunderground v.1.15,2013-02-13 16:30:00,
2013-02-13 08:35:00,51.4,37.1,30.28,East,98,2.0,3.0,58,0.00,,,0.00,Wunderground v.1.15,2013-02-13 16:35:00,
2013-02-13 08:40:00,51.1,36.4,30.28,East,80,2.0,3.0,57,0.00,,,0.00,Wunderground v.1.15,2013-02-13 16:40:00,
2013-02-13 08:50:00,52.4,38.0,30.28,ESE,105,2.0,2.0,58,0.00,,,0.00,Wunderground v.1.15,2013-02-13 16:50:00,
2013-02-13 08:55:00,53.6,38.7,30.28,SE,125,1.0,1.0,57,0.00,,,0.00,Wunderground v.1.15,2013-02-13 16:55:00,
2013-02-13 09:00:00,54.8,36.0,30.28,SW,235,0.0,0.0,49,0.00,,,0.00,Wunderground v.1.15,2013-02-13 17:00:00,
2013-02-13 09:10:00,54.1,36.9,30.29,West,278,0.0,0.0,52,0.00,,,0.00,Wunderground v.1.15,2013-02-13 17:10:00,
2013-02-13 09:15:00,53.4,37.6,30.29,West,259,0.0,1.0,55,0.00,,,0.00,Wunderground v.1.15,2013-02-13 17:15:00,
2013-02-13 09:25:00,52.7,37.4,30.29,West,276,1.0,2.0,56,0.00,,,0.00,Wunderground v.1.15,2013-02-13 17:25:00,
2013-02-13 09:30:00,52.5,37.7,30.29,WNW,282,1.0,1.0,57,0.00,,,0.00,Wunderground v.1.15,2013-02-13 17:30:00,
2013-02-13 09:35:00,53.4,38.5,30.29,WSW,245,0.0,1.0,57,0.00,,,0.00,Wunderground v.1.15,2013-02-13 17:35:00,
2013-02-13 09:40:00,54.6,39.2,30.29,WSW,244,0.0,0.0,56,0.00,,,0.00,Wunderground v.1.15,2013-02-13 17:40:00,
2013-02-13 09:45:00,55.5,39.1,30.29,WSW,244,0.0,0.0,54,0.00,,,0.00,Wunderground v.1.15,2013-02-13 17:45:00,
2013-02-13 09:50:00,56.7,41.2,30.29,SE,138,0.0,0.0,56,0.00,,,0.00,Wunderground v.1.15,2013-02-13 17:50:00,
2013-02-13 09:55:00,57.0,40.0,30.29,ESE,103,1.0,5.0,53,0.00,,,0.00,Wunderground v.1.15,2013-02-13 17:55:00,
2013-02-13 10:00:00,56.0,40.5,30.29,ENE,77,3.0,3.0,56,0.00,,,0.00,Wunderground v.1.15,2013-02-13 18:00:00,
2013-02-13 10:10:00,56.0,40.5,30.29,ENE,58,3.0,4.0,56,0.00,,,0.00,Wunderground v.1.15,2013-02-13 18:10:00,
2013-02-13 10:15:00,55.2,39.8,30.29,ENE,67,3.0,4.0,56,0.00,,,0.00,Wunderground v.1.15,2013-02-13 18:15:00,
2013-02-13 10:20:00,56.0,41.4,30.29,SSW,206,3.0,3.0,58,0.00,,,0.00,Wunderground v.1.15,2013-02-13 18:20:00,
2013-02-13 10:25:00,57.5,42.8,30.29,ESE,108,2.0,3.0,58,0.00,,,0.00,Wunderground v.1.15,2013-02-13 18:25:00,
2013-02-13 10:30:00,58.3,42.2,30.29,WSW,248,1.0,1.0,55,0.00,,,0.00,Wunderground v.1.15,2013-02-13 18:30:00,
2013-02-13 10:35:00,58.3,43.1,30.29,SW,224,0.0,1.0,57,0.00,,,0.00,Wunderground v.1.15,2013-02-13 18:35:00,
2013-02-13 10:45:00,58.2,43.9,30.28,SSW,210,1.0,1.0,59,0.00,,,0.00,Wunderground v.1.15,2013-02-13 18:45:00,
2013-02-13 10:50:00,58.8,45.4,30.28,SW,226,1.0,1.0,61,0.00,,,0.00,Wunderground v.1.15,2013-02-13 18:50:00,
2013-02-13 10:55:00,59.2,44.9,30.28,SW,232,1.0,1.0,59,0.00,,,0.00,Wunderground v.1.15,2013-02-13 18:55:00,
2013-02-13 11:00:00,59.1,45.2,30.28,WSW,251,1.0,1.0,60,0.00,,,0.00,Wunderground v.1.15,2013-02-13 19:00:00,
2013-02-13 11:10:00,57.4,44.5,30.27,South,169,3.0,3.0,62,0.00,,,0.00,Wunderground v.1.15,2013-02-13 19:10:00,
2013-02-13 11:15:00,57.9,46.2,30.27,East,94,3.0,6.0,65,0.00,,,0.00,Wunderground v.1.15,2013-02-13 19:15:00,
2013-02-13 11:25:00,57.7,45.2,30.27,East,92,4.0,4.0,63,0.00,,,0.00,Wunderground v.1.15,2013-02-13 19:25:00,
2013-02-13 11:30:00,57.7,45.2,30.26,East,101,4.0,7.0,63,0.00,,,0.00,Wunderground v.1.15,2013-02-13 19:30:00,
2013-02-13 11:35:00,58.1,45.1,30.26,SSW,194,4.0,7.0,62,0.00,,,0.00,Wunderground v.1.15,2013-02-13 19:35:00,
2013-02-13 11:40:00,58.8,46.2,30.26,East,91,4.0,4.0,63,0.00,,,0.00,Wunderground v.1.15,2013-02-13 19:40:00,
2013-02-13 11:45:00,60.0,46.9,30.26,SW,218,2.0,4.0,62,0.00,,,0.00,Wunderground v.1.15,2013-02-13 19:45:00,
2013-02-13 11:50:00,59.6,46.1,30.25,WSW,240,1.0,1.0,61,0.00,,,0.00,Wunderground v.1.15,2013-02-13 19:50:00,
2013-02-13 11:55:00,59.2,45.8,30.25,WSW,243,1.0,1.0,61,0.00,,,0.00,Wunderground v.1.15,2013-02-13 19:55:00,
2013-02-13 12:05:00,59.7,45.8,30.25,South,179,1.0,2.0,60,0.00,,,0.00,Wunderground v.1.15,2013-02-13 20:05:00,
2013-02-13 12:10:00,59.3,45.8,30.25,SW,235,1.0,2.0,61,0.00,,,0.00,Wunderground v.1.15,2013-02-13 20:10:00,
2013-02-13 12:15:00,59.5,46.5,30.25,SW,229,1.0,1.0,62,0.00,,,0.00,Wunderground v.1.15,2013-02-13 20:15:00,
2013-02-13 12:20:00,59.5,45.6,30.24,WSW,250,1.0,1.0,60,0.00,,,0.00,Wunderground v.1.15,2013-02-13 20:20:00,
2013-02-13 12:25:00,59.6,46.1,30.24,SSW,198,1.0,1.0,61,0.00,,,0.00,Wunderground v.1.15,2013-02-13 20:25:00,
2013-02-13 12:30:00,59.6,46.6,30.24,WSW,239,1.0,1.0,62,0.00,,,0.00,Wunderground v.1.15,2013-02-13 20:30:00,
2013-02-13 12:35:00,59.9,46.8,30.24,SW,217,1.0,1.0,62,0.00,,,0.00,Wunderground v.1.15,2013-02-13 20:35:00,
2013-02-13 12:40:00,60.3,47.2,30.24,SSW,200,1.0,1.0,62,0.00,,,0.00,Wunderground v.1.15,2013-02-13 20:40:00,
2013-02-13 12:50:00,61.4,47.4,30.23,SSW,210,1.0,1.0,60,0.00,,,0.00,Wunderground v.1.15,2013-02-13 20:50:00,
2013-02-13 12:55:00,61.2,47.2,30.23,ESE,123,1.0,4.0,60,0.00,,,0.00,Wunderground v.1.15,2013-02-13 20:55:00,
2013-02-13 13:00:00,60.3,47.2,30.23,SE,132,2.0,3.0,62,0.00,,,0.00,Wunderground v.1.15,2013-02-13 21:00:00,
2013-02-13 13:10:00,60.4,46.9,30.23,WSW,238,2.0,2.0,61,0.00,,,0.00,Wunderground v.1.15,2013-02-13 21:10:00,
2013-02-13 13:20:00,59.9,46.8,30.23,SSW,193,1.0,3.0,62,0.00,,,0.00,Wunderground v.1.15,2013-02-13 21:20:00,
2013-02-13 13:25:00,59.1,47.3,30.23,SE,125,2.0,3.0,65,0.00,,,0.00,Wunderground v.1.15,2013-02-13 21:25:00,
2013-02-13 13:30:00,58.2,45.7,30.22,ENE,76,3.0,7.0,63,0.00,,,0.00,Wunderground v.1.15,2013-02-13 21:30:00,
2013-02-13 13:35:00,55.9,45.9,30.22,SSE,157,5.0,7.0,69,0.00,,,0.00,Wunderground v.1.15,2013-02-13 21:35:00,
2013-02-13 13:40:00,56.2,47.3,30.22,SE,136,4.0,4.0,72,0.00,,,0.00,Wunderground v.1.15,2013-02-13 21:40:00,
2013-02-13 13:45:00,57.1,47.0,30.22,ESE,118,3.0,4.0,69,0.00,,,0.00,Wunderground v.1.15,2013-02-13 21:45:00,
2013-02-13 13:50:00,57.4,47.7,30.22,SE,135,2.0,2.0,70,0.00,,,0.00,Wunderground v.1.15,2013-02-13 21:50:00,
2013-02-13 14:00:00,57.5,47.4,30.21,SE,142,2.0,2.0,69,0.00,,,0.00,Wunderground v.1.15,2013-02-13 22:00:00,
2013-02-13 14:10:00,54.7,46.9,30.21,ESE,113,5.0,5.0,75,0.00,,,0.00,Wunderground v.1.15,2013-02-13 22:10:00,
2013-02-13 14:15:00,54.4,46.6,30.21,SE,139,5.0,5.0,75,0.00,,,0.00,Wunderground v.1.15,2013-02-13 22:15:00,
2013-02-13 14:20:00,54.5,47.4,30.20,SSE,158,4.0,4.0,77,0.00,,,0.00,Wunderground v.1.15,2013-02-13 22:20:00,
2013-02-13 14:25:00,54.7,47.3,30.20,SSW,203,3.0,4.0,76,0.00,,,0.00,Wunderground v.1.15,2013-02-13 22:25:00,
2013-02-13 14:35:00,55.4,46.9,30.20,East,97,3.0,5.0,73,0.00,,,0.00,Wunderground v.1.15,2013-02-13 22:35:00,
2013-02-13 14:40:00,54.4,46.6,30.20,SSE,167,4.0,4.0,75,0.00,,,0.00,Wunderground v.1.15,2013-02-13 22:40:00,
2013-02-13 14:45:00,54.8,47.4,30.20,ESE,103,4.0,4.0,76,0.00,,,0.00,Wunderground v.1.15,2013-02-13 22:45:00,
2013-02-13 14:50:00,55.6,48.2,30.20,East,87,3.0,3.0,76,0.00,,,0.00,Wunderground v.1.15,2013-02-13 22:50:00,
2013-02-13 14:55:00,55.2,47.4,30.20,ESE,116,3.0,3.0,75,0.00,,,0.00,Wunderground v.1.15,2013-02-13 22:55:00,
2013-02-13 15:00:00,54.7,46.6,30.20,ENE,62,3.0,7.0,74,0.00,,,0.00,Wunderground v.1.15,2013-02-13 23:00:00,
2013-02-13 15:10:00,52.1,46.1,30.20,South,172,5.0,5.0,80,0.00,,,0.00,Wunderground v.1.15,2013-02-13 23:10:00,
2013-02-13 15:15:00,51.9,46.3,30.20,SE,134,4.0,5.0,81,0.00,,,0.00,Wunderground v.1.15,2013-02-13 23:15:00,
2013-02-13 15:20:00,51.4,46.4,30.20,SSE,167,4.0,4.0,83,0.00,,,0.00,Wunderground v.1.15,2013-02-13 23:20:00,
2013-02-13 15:25:00,51.3,46.0,30.20,ESE,108,4.0,4.0,82,0.00,,,0.00,Wunderground v.1.15,2013-02-13 23:25:00,
2013-02-13 15:30:00,51.2,46.2,30.19,ESE,109,4.0,4.0,83,0.00,,,0.00,Wunderground v.1.15,2013-02-13 23:30:00,
2013-02-13 15:35:00,51.2,46.2,30.19,East,94,4.0,4.0,83,0.00,,,0.00,Wunderground v.1.15,2013-02-13 23:35:00,
2013-02-13 15:40:00,51.5,46.5,30.19,East,98,3.0,4.0,83,0.00,,,0.00,Wunderground v.1.15,2013-02-13 23:40:00,
2013-02-13 15:50:00,52.5,47.2,30.19,SE,125,3.0,3.0,82,0.00,,,0.00,Wunderground v.1.15,2013-02-13 23:50:00,
2013-02-13 15:55:00,53.0,47.3,30.19,ESE,109,3.0,3.0,81,0.00,,,0.00,Wunderground v.1.15,2013-02-13 23:55:00,
2013-02-13 16:00:00,53.0,47.0,30.18,ESE,113,3.0,3.0,80,0.00,,,0.00,Wunderground v.1.15,2013-02-14 00:00:00,
2013-02-13 16:10:00,52.8,47.5,30.19,SE,124,2.0,2.0,82,0.00,,,0.00,Wunderground v.1.15,2013-02-14 00:10:00,
2013-02-13 16:20:00,53.1,47.1,30.18,East,89,1.0,3.0,80,0.00,,,0.00,Wunderground v.1.15,2013-02-14 00:20:00,
2013-02-13 16:25:00,52.2,46.2,30.18,ESE,110,2.0,4.0,80,0.00,,,0.00,Wunderground v.1.15,2013-02-14 00:25:00,
2013-02-13 16:30:00,51.3,46.6,30.18,East,91,3.0,3.0,84,0.00,,,0.00,Wunderground v.1.15,2013-02-14 00:30:00,
2013-02-13 16:35:00,51.2,46.5,30.18,SSE,149,2.0,3.0,84,0.00,,,0.00,Wunderground v.1.15,2013-02-14 00:35:00,
2013-02-13 16:40:00,51.4,46.4,30.18,East,94,2.0,4.0,83,0.00,,,0.00,Wunderground v.1.15,2013-02-14 00:40:00,
2013-02-13 16:45:00,51.0,46.3,30.18,ESE,110,2.0,4.0,84,0.00,,,0.00,Wunderground v.1.15,2013-02-14 00:45:00,
2013-02-13 16:50:00,50.9,46.6,30.18,ESE,105,2.0,2.0,85,0.00,,,0.00,Wunderground v.1.15,2013-02-14 00:50:00,
2013-02-13 17:00:00,51.4,47.0,30.18,ESE,113,1.0,1.0,85,0.00,,,0.00,Wunderground v.1.15,2013-02-14 01:00:00,
2013-02-13 17:10:00,50.5,46.2,30.18,ESE,111,1.0,1.0,85,0.00,,,0.00,Wunderground v.1.15,2013-02-14 01:10:00,
2013-02-13 17:15:00,50.3,46.0,30.18,East,94,1.0,1.0,85,0.00,,,0.00,Wunderground v.1.15,2013-02-14 01:15:00,
2013-02-13 17:20:00,50.0,45.7,30.18,East,85,1.0,2.0,85,0.00,,,0.00,Wunderground v.1.15,2013-02-14 01:20:00,
2013-02-13 17:30:00,49.5,45.8,30.18,East,91,1.0,1.0,87,0.00,,,0.00,Wunderground v.1.15,2013-02-14 01:30:00,
2013-02-13 17:35:00,49.4,45.7,30.19,ENE,68,1.0,1.0,87,0.00,,,0.00,Wunderground v.1.15,2013-02-14 01:35:00,
2013-02-13 17:40:00,49.6,45.9,30.19,ENE,68,0.0,0.0,87,0.00,,,0.00,Wunderground v.1.15,2013-02-14 01:40:00,
2013-02-13 17:45:00,49.6,45.9,30.18,ENE,68,0.0,0.0,87,0.00,,,0.00,Wunderground v.1.15,2013-02-14 01:45:00,
2013-02-13 17:55:00,50.4,45.7,30.19,ENE,71,1.0,1.0,84,0.00,,,0.00,Wunderground v.1.15,2013-02-14 01:55:00,
2013-02-13 18:05:00,51.8,41.9,30.19,West,276,1.0,1.0,69,0.00,,,0.00,Wunderground v.1.15,2013-02-14 02:05:00,
2013-02-13 18:10:00,52.0,43.3,30.19,NNE,16,1.0,1.0,72,0.00,,,0.00,Wunderground v.1.15,2013-02-14 02:10:00,
2013-02-13 18:15:00,51.4,43.0,30.19,NE,45,0.0,1.0,73,0.00,,,0.00,Wunderground v.1.15,2013-02-14 02:15:00,
2013-02-13 18:20:00,51.6,42.1,30.19,NE,46,0.0,0.0,70,0.00,,,0.00,Wunderground v.1.15,2013-02-14 02:20:00,
2013-02-13 18:25:00,51.5,40.9,30.19,NE,47,0.0,0.0,67,0.00,,,0.00,Wunderground v.1.15,2013-02-14 02:25:00,
2013-02-13 18:30:00,51.5,42.0,30.19,NE,47,0.0,1.0,70,0.00,,,0.00,Wunderground v.1.15,2013-02-14 02:30:00,
2013-02-13 18:40:00,51.8,41.2,30.19,ENE,65,0.0,0.0,67,0.00,,,0.00,Wunderground v.1.15,2013-02-14 02:40:00,
2013-02-13 18:45:00,51.9,40.9,30.19,ENE,65,0.0,0.0,66,0.00,,,0.00,Wunderground v.1.15,2013-02-14 02:45:00,
2013-02-13 18:50:00,52.7,40.5,30.19,East,82,0.0,1.0,63,0.00,,,0.00,Wunderground v.1.15,2013-02-14 02:50:00,
2013-02-13 18:55:00,53.0,39.9,30.19,ENE,60,0.0,1.0,61,0.00,,,0.00,Wunderground v.1.15,2013-02-14 02:55:00,
2013-02-13 19:00:00,53.0,39.9,30.19,ENE,60,0.0,0.0,61,0.00,,,0.00,Wunderground v.1.15,2013-02-14 03:00:00,
2013-02-13 19:10:00,52.7,40.0,30.19,ENE,58,0.0,0.0,62,0.00,,,0.00,Wunderground v.1.15,2013-02-14 03:10:00,
2013-02-13 19:15:00,52.8,40.1,30.18,NNW,337,0.0,0.0,62,0.00,,,0.00,Wunderground v.1.15,2013-02-14 03:15:00,
2013-02-13 19:20:00,53.0,39.9,30.19,NW,318,0.0,0.0,61,0.00,,,0.00,Wunderground v.1.15,2013-02-14 03:20:00,
2013-02-13 19:25:00,53.2,40.1,30.19,WNW,290,0.0,0.0,61,0.00,,,0.00,Wunderground v.1.15,2013-02-14 03:25:00,
2013-02-13 19:30:00,53.2,40.1,30.19,NW,307,1.0,1.0,61,0.00,,,0.00,Wunderground v.1.15,2013-02-14 03:30:00,
2013-02-13 19:35:00,53.4,40.3,30.19,WNW,302,1.0,1.0,61,0.00,,,0.00,Wunderground v.1.15,2013-02-14 03:35:00,
2013-02-13 19:40:00,52.9,40.2,30.19,WNW,302,0.0,0.0,62,0.00,,,0.00,Wunderground v.1.15,2013-02-14 03:40:00,
2013-02-13 19:45:00,52.6,39.9,30.19,ENE,70,0.0,0.0,62,0.00,,,0.00,Wunderground v.1.15,2013-02-14 03:45:00,
2013-02-13 20:00:00,52.6,39.1,30.19,West,271,0.0,0.0,60,0.00,,,0.00,Wunderground v.1.15,2013-02-14 04:00:00,
2013-02-13 20:10:00,51.8,39.2,30.19,West,267,0.0,0.0,62,0.00,,,0.00,Wunderground v.1.15,2013-02-14 04:10:00,
2013-02-13 20:20:00,51.0,39.2,30.20,West,267,0.0,0.0,64,0.00,,,0.00,Wunderground v.1.15,2013-02-14 04:20:00,
2013-02-13 20:25:00,50.9,39.1,30.19,NW,308,0.0,0.0,64,0.00,,,0.00,Wunderground v.1.15,2013-02-14 04:25:00,
2013-02-13 20:35:00,50.8,39.5,30.20,NW,308,0.0,0.0,65,0.00,,,0.00,Wunderground v.1.15,2013-02-14 04:35:00,
2013-02-13 20:40:00,50.9,39.1,30.19,ENE,61,0.0,0.0,64,0.00,,,0.00,Wunderground v.1.15,2013-02-14 04:40:00,
2013-02-13 20:45:00,50.9,38.7,30.20,ENE,59,0.0,0.0,63,0.00,,,0.00,Wunderground v.1.15,2013-02-14 04:45:00,
2013-02-13 20:55:00,50.6,38.5,30.19,NNE,23,0.0,0.0,63,0.00,,,0.00,Wunderground v.1.15,2013-02-14 04:55:00,
2013-02-13 21:00:00,50.5,38.4,30.20,NE,44,0.0,0.0,63,0.00,,,0.00,Wunderground v.1.15,2013-02-14 05:00:00,
2013-02-13 21:10:00,51.2,38.6,30.20,NE,46,0.0,0.0,62,0.00,,,0.00,Wunderground v.1.15,2013-02-14 05:10:00,
2013-02-13 21:20:00,49.6,38.7,30.20,ENE,60,2.0,3.0,66,0.00,,,0.00,Wunderground v.1.15,2013-02-14 05:20:00,
2013-02-13 21:30:00,47.8,38.5,30.20,NE,53,1.0,2.0,70,0.00,,,0.00,Wunderground v.1.15,2013-02-14 05:30:00,
2013-02-13 21:35:00,48.1,38.8,30.20,ENE,61,0.0,2.0,70,0.00,,,0.00,Wunderground v.1.15,2013-02-14 05:35:00,
2013-02-13 21:40:00,48.4,38.3,30.20,ENE,60,0.0,0.0,68,0.00,,,0.00,Wunderground v.1.15,2013-02-14 05:40:00,
2013-02-13 21:45:00,48.3,38.2,30.20,ENE,63,0.0,0.0,68,0.00,,,0.00,Wunderground v.1.15,2013-02-14 05:45:00,
2013-02-13 21:55:00,48.4,38.3,30.20,NE,56,0.0,0.0,68,0.00,,,0.00,Wunderground v.1.15,2013-02-14 05:55:00,
2013-02-13 22:00:00,48.7,38.2,30.20,NNW,342,0.0,3.0,67,0.00,,,0.00,Wunderground v.1.15,2013-02-14 06:00:00,
2013-02-13 22:10:00,49.2,38.3,30.20,NNE,23,0.0,0.0,66,0.00,,,0.00,Wunderground v.1.15,2013-02-14 06:10:00,
2013-02-13 22:15:00,49.7,38.4,30.20,ENE,68,0.0,0.0,65,0.00,,,0.00,Wunderground v.1.15,2013-02-14 06:15:00,
2013-02-13 22:20:00,50.1,38.4,30.20,NE,50,0.0,0.0,64,0.00,,,0.00,Wunderground v.1.15,2013-02-14 06:20:00,
2013-02-13 22:25:00,50.1,38.4,30.20,NE,50,0.0,1.0,64,0.00,,,0.00,Wunderground v.1.15,2013-02-14 06:25:00,
2013-02-13 22:30:00,50.6,38.5,30.20,East,93,0.0,0.0,63,0.00,,,0.00,Wunderground v.1.15,2013-02-14 06:30:00,
2013-02-13 22:40:00,50.5,38.4,30.20,East,83,0.0,0.0,63,0.00,,,0.00,Wunderground v.1.15,2013-02-14 06:40:00,
2013-02-13 22:45:00,50.4,38.3,30.20,East,83,0.0,1.0,63,0.00,,,0.00,Wunderground v.1.15,2013-02-14 06:45:00,
2013-02-13 22:50:00,50.4,38.3,30.19,East,79,0.0,2.0,63,0.00,,,0.00,Wunderground v.1.15,2013-02-14 06:50:00,
2013-02-13 22:55:00,50.2,38.1,30.19,ENE,76,0.0,2.0,63,0.00,,,0.00,Wunderground v.1.15,2013-02-14 06:55:00,
2013-02-13 23:00:00,49.9,37.8,30.19,ENE,76,0.0,0.0,63,0.00,,,0.00,Wunderground v.1.15,2013-02-14 07:00:00,
2013-02-13 23:10:00,49.5,37.8,30.19,ENE,76,0.0,1.0,64,0.00,,,0.00,Wunderground v.1.15,2013-02-14 07:10:00,
2013-02-13 23:15:00,49.9,37.8,30.19,ENE,76,0.0,1.0,63,0.00,,,0.00,Wunderground v.1.15,2013-02-14 07:15:00,
2013-02-13 23:25:00,50.0,37.9,30.19,East,82,1.0,1.0,63,0.00,,,0.00,Wunderground v.1.15,2013-02-14 07:25:00,
2013-02-13 23:35:00,50.0,37.9,30.18,ENE,70,1.0,1.0,63,0.00,,,0.00,Wunderground v.1.15,2013-02-14 07:35:00,
2013-02-13 23:40:00,50.2,37.7,30.18,NNW,331,0.0,0.0,62,0.00,,,0.00,Wunderground v.1.15,2013-02-14 07:40:00,
2013-02-13 23:45:00,50.1,37.6,30.19,NW,309,0.0,1.0,62,0.00,,,0.00,Wunderground v.1.15,2013-02-14 07:45:00,
2013-02-13 23:50:00,50.5,38.0,30.18,WSW,250,0.0,0.0,62,0.00,,,0.00,Wunderground v.1.15,2013-02-14 07:50:00,
2013-02-13 23:55:00,50.5,38.0,30.18,WNW,302,0.0,3.0,62,0.00,,,0.00,Wunderground v.1.15,2013-02-14 07:55:00,